Wind_Speed
28 27 27 26 24 22 23 21 20 19 22 23 22 21 19 16 18 19 18 17 18 19 21 21 24 24 22 22 23 24 27 28 26 23 23 23 25 31
29 30 30 27 24 23 22 23 22 20 21 21 22 21 19 17 18 17 17 17 19 20 22 22 23 22 20 21 22 24 27 27 25 25 22 15 20 25
25 29 31 28 24 23 21 23 24 24 25 23 23 21 20 19 17 17 17 17 19 20 22 21 19 18 18 19 21 23 24 22 22 21 27 28 25 26
21 23 27 26 22 20 18 20 23 26 26 26 25 22 21 21 18 17 16 16 17 17 17 16 15 16 17 18 20 21 22 23 22 22 25 31 32 26
23 23 23 20 19 19 18 19 20 21 23 25 21 20 19 20 17 16 15 14 12 12 13 15 16 16 16 17 18 20 21 23 21 21 21 20 25 29
22 21 20 21 22 20 19 19 21 22 22 19 19 19 19 21 16 15 14 11 10 11 13 15 15 16 16 16 15 15 16 14 13 18 18 24 22 18
23 22 22 22 23 22 20 21 22 23 22 19 22 23 23 22 17 14 14 11 10 9 11 14 15 17 16 14 12 12 12 8 5 4 3 8 11 12
25 24 22 22 23 23 21 19 20 22 23 20 21 23 23 22 18 16 14 13 12 11 11 13 16 16 15 14 11 10 9 7 6 7 7 7 9 11
27 28 27 25 26 24 23 21 21 22 22 22 23 23 24 22 20 18 16 15 14 13 12 13 17 17 15 13 11 9 8 8 7 8 9 8 9 11
23 26 31 31 27 27 26 23 23 24 25 27 25 23 23 21 21 18 17 16 14 13 11 13 17 16 13 12 12 12 11 10 10 11 12 12 12 13
21 21 22 31 28 27 26 26 25 25 25 25 23 24 24 24 22 20 19 17 15 13 11 13 15 16 14 13 13 13 13 14 13 14 14 13 14 15
23 21 19 22 27 28 28 28 27 26 26 26 25 27 27 27 26 24 20 19 17 14 13 14 16 16 16 15 15 16 16 16 16 16 16 15 15 15
26 23 21 21 25 29 30 29 29 29 29 30 27 25 27 27 28 26 22 20 18 16 16 17 17 17 18 18 18 18 18 18 18 18 17 16 17 18
30 29 28 28 29 29 28 27 28 29 29 30 29 28 31 31 30 28 25 22 18 19 20 20 20 19 20 20 20 20 21 21 21 20 20 20 20 19
26 28 30 31 30 29 29 29 30 31 31 31 32 30 33 36 36 33 28 25 22 22 23 24 23 22 22 22 22 23 24 24 24 24 24 23 22 23
24 26 29 33 32 30 31 30 29 30 31 32 34 34 32 37 38 34 31 28 25 24 25 26 25 24 25 25 26 27 28 28 28 26 26 26 26 28
22 25 27 29 33 33 31 31 30 30 29 30 32 34 35 38 41 38 33 29 28 28 27 28 27 27 27 28 30 31 32 33 33 31 30 30 32 34
21 21 21 23 26 27 28 29 29 29 31 31 30 34 37 37 40 37 34 34 33 31 30 29 29 30 29 29 32 33 34 35 37 36 37 39 40 42
24 24 24 23 24 25 27 27 26 27 27 26 27 32 33 33 35 31 30 33 34 33 32 31 32 33 34 34 35 35 35 38 40 41 43 43 45 46
25 27 29 30 30 28 28 28 27 26 27 27 26 23 25 26 26 24 27 30 33 34 35 35 36 37 35 33 34 36 39 42 44 45 46 47 47 48
23 25 27 29 30 31 32 32 31 28 27 28 28 27 26 24 26 27 29 31 33 35 36 37 38 38 39 38 37 38 38 37 37 38 40 41 42 44
19 20 22 23 25 27 31 33 33 31 29 29 31 33 33 32 32 33 34 34 35 36 36 37 37 36 38 40 41 40 40 39 38 39 40 42 43 45
18 20 21 23 27 30 29 29 31 30 31 32 34 35 34 34 34 34 34 33 33 35 36 36 35 36 39 42 44 43 41 42 41 42 44 45 45 46
Wind_Direction
243 244 242 241 249 254 249 245 244 245 250 249 247 249 252 257 264 265 264 261 267 273 278 282 285 279 271 271 275 281 284 283 275 252 243 269 252 230
245 244 240 243 244 250 248 250 251 251 247 243 244 245 253 259 261 263 263 267 272 278 282 285 281 270 268 275 282 286 286 283 270 247 237 246 224 231
244 241 237 241 241 243 249 254 252 249 248 248 247 247 253 255 255 258 264 271 278 284 287 285 275 267 269 276 282 284 284 273 259 240 224 223 243 230
235 227 232 239 233 234 240 243 251 244 248 250 244 247 249 252 255 261 267 276 281 285 284 283 274 269 270 277 284 286 284 274 266 243 236 232 231 241
228 221 225 230 232 231 234 239 241 245 253 238 231 243 247 250 252 258 263 271 280 282 281 281 274 272 272 279 285 284 287 285 267 224 211 225 234 243
237 228 225 228 231 229 231 232 232 238 241 235 232 244 249 249 245 254 262 265 274 279 279 278 275 272 269 275 282 284 291 285 249 222 211 206 208 206
240 233 229 224 232 233 230 231 233 235 239 246 243 246 247 250 248 255 260 263 270 269 277 275 273 266 260 265 270 278 302 309 282 246 227 177 166 167
236 231 231 230 232 231 222 222 227 233 243 252 246 253 250 251 248 249 256 260 264 264 272 268 264 254 254 258 256 264 283 288 281 262 241 187 166 168
234 233 230 228 228 222 220 224 228 239 246 243 242 246 248 249 247 245 247 248 255 258 264 270 257 247 249 251 245 245 251 245 224 224 216 202 193 189
232 232 229 222 221 226 230 231 230 237 240 241 244 247 247 243 246 248 247 243 247 251 255 261 251 245 240 236 232 227 222 226 220 220 213 206 208 210
227 224 232 217 213 221 228 232 230 232 233 239 247 253 252 237 240 247 248 243 240 240 241 247 244 237 230 224 224 222 219 219 219 221 220 218 221 220
223 213 208 214 217 225 232 236 235 233 236 240 251 256 243 234 233 243 247 243 236 235 231 234 231 228 228 224 227 227 222 219 218 223 225 225 228 228
227 221 224 226 227 231 232 233 234 234 237 239 242 247 239 230 228 237 240 236 234 234 232 231 227 221 224 228 229 231 229 225 223 221 223 227 231 236
232 230 231 236 237 234 232 234 239 241 242 241 238 240 235 230 231 238 239 233 232 235 233 230 229 223 223 229 231 230 231 230 228 227 229 233 238 243
233 229 233 238 235 232 231 234 240 241 243 244 239 236 234 232 232 236 240 236 230 232 235 232 228 228 227 228 231 233 232 232 232 232 235 238 240 244
244 242 243 238 235 237 238 243 245 245 249 245 238 235 238 240 235 236 237 238 234 231 232 234 233 232 232 232 233 234 235 236 237 237 239 243 248 253
245 247 246 242 244 245 245 247 246 245 243 241 239 236 236 239 237 239 236 239 240 237 234 231 233 236 237 237 239 238 238 239 241 243 248 253 258 260
243 243 245 245 247 247 247 247 247 245 242 240 237 242 246 242 236 231 229 236 240 240 238 237 236 237 238 238 241 244 246 246 247 248 251 255 259 261
246 247 249 249 248 249 250 251 249 243 237 237 241 248 250 235 224 225 234 237 238 241 243 243 244 245 243 242 244 246 249 250 252 253 256 260 264 268
256 256 257 257 255 252 254 256 254 246 238 238 243 239 225 220 225 230 233 236 240 244 247 248 249 251 252 251 252 252 251 252 254 257 260 262 265 268
264 263 261 260 257 255 255 255 255 251 240 237 245 247 241 235 231 233 238 240 242 244 247 250 253 257 258 256 255 256 258 258 259 260 261 263 264 266
267 267 267 265 261 259 257 253 251 247 237 231 232 232 233 237 239 238 242 248 250 251 252 255 258 260 263 261 256 257 261 262 264 265 267 268 269 270
277 277 273 267 265 265 259 249 245 241 238 235 234 233 232 234 236 238 243 247 251 251 251 257 265 267 273 269 262 254 258 264 268 271 272 273 275 276
Height
5819 5821 5825 5827 5828 5830 5832 5834 5836 5837 5838 5838 5839 5840 5840 5841 5841 5842 5843 5844 5844 5844 5843 5843 5842 5842 5841 5840 5838 5837 5836 5834 5834 5835 5835 5835 5833 5837
5813 5813 5817 5820 5824 5825 5827 5829 5831 5833 5833 5834 5834 5835 5835 5837 5836 5837 5838 5839 5839 5838 5838 5836 5836 5835 5834 5834 5832 5830 5828 5827 5828 5829 5830 5828 5827 5833
5804 5805 5809 5814 5817 5819 5822 5823 5825 5826 5827 5830 5830 5830 5831 5832 5832 5832 5833 5834 5834 5833 5832 5831 5830 5828 5828 5827 5826 5824 5823 5823 5822 5825 5824 5826 5825 5828
5797 5800 5803 5807 5810 5812 5815 5817 5817 5819 5822 5824 5825 5826 5828 5827 5828 5827 5828 5828 5828 5827 5827 5826 5824 5822 5822 5821 5820 5818 5817 5816 5816 5817 5818 5819 5820 5823
5792 5795 5798 5800 5804 5805 5808 5811 5812 5814 5816 5818 5819 5821 5822 5822 5823 5823 5823 5823 5822 5822 5822 5821 5819 5818 5817 5817 5816 5814 5811 5809 5809 5810 5810 5812 5812 5817
5786 5790 5793 5795 5798 5800 5803 5806 5808 5809 5811 5812 5814 5816 5816 5818 5818 5819 5819 5818 5817 5817 5816 5816 5815 5814 5813 5813 5812 5810 5808 5805 5804 5804 5804 5806 5808 5811
5782 5785 5787 5790 5793 5796 5799 5801 5803 5804 5806 5807 5809 5810 5811 5813 5813 5813 5815 5814 5813 5812 5811 5811 5811 5811 5810 5809 5809 5808 5806 5804 5803 5803 5804 5805 5807 5811
5774 5777 5780 5784 5787 5790 5793 5795 5796 5799 5801 5801 5802 5804 5806 5808 5808 5808 5809 5810 5810 5808 5807 5807 5808 5808 5807 5806 5806 5806 5805 5805 5804 5805 5805 5806 5808 5810
5767 5770 5773 5777 5780 5784 5788 5790 5791 5793 5794 5796 5797 5798 5800 5802 5804 5804 5805 5807 5806 5805 5803 5803 5804 5805 5804 5803 5803 5804 5804 5804 5805 5807 5808 5808 5809 5812
5760 5763 5765 5769 5773 5777 5780 5783 5785 5786 5788 5790 5791 5792 5793 5797 5799 5800 5800 5802 5802 5802 5799 5800 5801 5801 5801 5801 5801 5802 5803 5804 5805 5807 5808 5809 5812 5814
5754 5757 5758 5760 5765 5769 5772 5775 5778 5780 5782 5784 5784 5785 5787 5790 5793 5794 5794 5796 5797 5797 5796 5797 5798 5798 5798 5799 5800 5801 5802 5803 5804 5806 5807 5808 5810 5812
5749 5750 5752 5754 5757 5761 5764 5767 5770 5773 5776 5777 5778 5778 5780 5784 5787 5789 5789 5790 5791 5791 5792 5794 5795 5794 5795 5796 5797 5798 5799 5800 5802 5803 5804 5805 5807 5808
5740 5742 5745 5748 5751 5754 5757 5760 5763 5766 5767 5768 5770 5772 5774 5777 5780 5782 5784 5785 5785 5786 5788 5791 5791 5790 5792 5793 5794 5795 5796 5797 5798 5800 5801 5803 5804 5806
5732 5735 5738 5742 5746 5748 5749 5751 5754 5757 5758 5760 5763 5766 5768 5771 5774 5776 5778 5779 5778 5780 5783 5787 5787 5786 5787 5790 5791 5792 5793 5794 5795 5797 5798 5799 5800 5801
5724 5728 5732 5735 5739 5740 5743 5745 5747 5749 5750 5751 5755 5759 5761 5763 5765 5768 5771 5771 5772 5775 5778 5781 5782 5782 5783 5785 5787 5788 5788 5790 5791 5792 5793 5793 5794 5794
5720 5723 5726 5727 5730 5733 5735 5737 5738 5740 5741 5742 5746 5749 5752 5754 5756 5760 5763 5764 5766 5769 5771 5773 5775 5776 5777 5779 5780 5781 5783 5784 5785 5787 5788 5788 5788 5788
5715 5717 5719 5720 5722 5724 5726 5728 5729 5731 5732 5735 5737 5739 5743 5745 5747 5750 5754 5758 5759 5762 5765 5766 5767 5769 5771 5772 5773 5773 5776 5778 5778 5780 5780 5780 5780 5781
5709 5711 5711 5712 5713 5715 5717 5719 5720 5721 5723 5726 5729 5732 5734 5736 5737 5741 5745 5750 5752 5754 5756 5758 5759 5762 5764 5764 5764 5766 5768 5769 5770 5772 5772 5771 5771 5770
5703 5704 5705 5706 5707 5709 5710 5711 5712 5713 5715 5717 5720 5724 5726 5727 5729 5734 5738 5741 5744 5746 5748 5750 5751 5752 5754 5756 5756 5759 5760 5759 5759 5760 5761 5761 5760 5758
5695 5696 5697 5698 5700 5701 5702 5703 5703 5705 5707 5710 5713 5715 5717 5721 5725 5728 5731 5734 5736 5738 5740 5742 5742 5742 5746 5748 5749 5748 5748 5748 5749 5749 5749 5749 5749 5747
5687 5687 5688 5688 5689 5691 5693 5695 5696 5697 5700 5702 5705 5708 5711 5714 5717 5720 5723 5725 5728 5730 5732 5733 5732 5734 5736 5737 5738 5736 5737 5738 5738 5738 5738 5738 5737 5735
5681 5681 5680 5680 5680 5681 5683 5685 5686 5689 5693 5696 5699 5702 5705 5708 5710 5713 5715 5717 5719 5720 5722 5722 5722 5723 5725 5726 5726 5725 5725 5726 5725 5725 5724 5724 5722 5721
5676 5674 5673 5672 5671 5671 5672 5674 5676 5679 5683 5687 5690 5693 5696 5699 5702 5705 5707 5709 5710 5710 5711 5711 5712 5713 5712 5712 5712 5712 5712 5712 5713 5713 5712 5710 5709 5707